Regional Weather Roundup
Issued by NWS

Home | Current Version | Previous Version | Text Only | Print | Product List | Glossary On
Versions: 1 2 3 4 5 6 7 8 9 10 11 12 13 14 15 16 17 18 19 20 21 22 23 24 25 26 27 28 29 30 31 32 33 34 35 36 37 38 39 40 41 42 43 44 45 46 47 48 49 50
000
ASUS46 KLOX 030712
RWRCA

SOUTHERN CALIFORNIA WEATHER ROUNDUP
NATIONAL WEATHER SERVICE OXNARD CALIFORNIA
1200 AM PDT WED SEP 03 2014

NOTE: "FAIR" INDICATES FEW OR NO CLOUDS BELOW 12,000 FEET WITH NO
SIGNIFICANT WEATHER AND/OR OBSTRUCTIONS TO VISIBILITY.

  -  STATIONS PRECEEDED BY AN ASTERISK (*) ARE NOT NWS OR FAA
     STATIONS AND ARE NOT SUBJECT TO NWS AND FAA QUALITY CONTROL.

CAZ041-042-087-030800-
LA AND ORANGE COUNTY COASTAL AREAS


CITY           SKY/WX    TMP DP  RH WIND       PRES   REMARKS
L.A. DOWNTOWN  CLOUDY    68  63  84 CALM      29.81R
L.A. AIRPORT   MOCLDY    68  63  84 CALM      29.82R
LONG BEACH     CLOUDY    70  65  84 CALM      29.81S

CITY           SKY/WX    TMP DP  RH WIND       PRES   REMARKS
AVALON           N/A     70 N/A N/A SE1         N/A
FULLERTON      CLOUDY    72  64  76 CALM      29.80S
*GETTY CENTER    N/A     61  61 100 SW3         N/A
HAWTHORNE      CLOUDY    70  64  81 W3        29.81S
*LOS ALAMITOS  FAIR      71  65  82 CALM      29.81S
*REDONDO BEACH   N/A     68  64  86 CALM      29.81R
SANTA ANA      CLOUDY    74  64  71 SW3       29.81S
STA MONICA APT CLOUDY    68  62  81 SW5       29.82R
*UCLA            N/A     66  61  82 SW3       29.79S

$$

CAZ547-548-048-030800-
LA COUNTY VALLEYS AND INLAND EMPIRE


CITY           SKY/WX    TMP DP  RH WIND       PRES   REMARKS
BURBANK        CLEAR     68  62  81 CALM      29.81S
VAN NUYS       CLEAR     69  61  75 SE6       29.81S

CITY           SKY/WX    TMP DP  RH WIND       PRES   REMARKS
CORONA AIRPORT SUNNY     68  64  86 W3        29.82S
*CHATSWORTH      N/A     70  63  77 CALM      29.77R
CHINO          CLEAR     67  63  87 SW5       29.83S
MARCH AFB      CLEAR     67  61  79 W2        29.85R
ONTARIO        CLEAR     70  62  76 W6        29.82S
*PASADENA        N/A     68  64  88 CALM        N/A
RIVERSIDE      CLEAR     70  63  78 W5        29.82S
SAN BERNARDINO NOT AVBL
*WHITEMAN AP   NOT AVBL
*WOODLAND HILL   N/A     68  61  77 E1          N/A

$$

CAZ054-055-030800-
LA AND SAN BERNARDINO COUNTY MOUNTAINS


CITY           SKY/WX    TMP DP  RH WIND       PRES   REMARKS
*BIG BEAR AIRP SUNNY     50  30  46 CALM      30.15S
MT WILSON NWS    N/A     64  28  25 MISG        N/A
SANDBERG       CLEAR     73  31  21 S7        29.99F

$$

CAZ028-029-059-060-099-030800-
ANTELOPE VALLEY AND SURROUNDING AREAS


CITY           SKY/WX    TMP DP  RH WIND       PRES   REMARKS
LANCASTER      CLEAR     77  33  20 SW14      29.82S
PALMDALE       CLEAR     77  35  21 S13       29.84F

CITY           SKY/WX    TMP DP  RH WIND       PRES   REMARKS
29 PALMS       CLEAR     83  34  17 S8        29.83S
BARSTOW/DAGGET CLEAR     83  43  24 W16       29.78R
BISHOP         CLEAR     71  33  24 E3        29.86R
CHINA LAKE     CLEAR     85  41  21 S16       29.74S
EDWARDS AFB    CLEAR     78  33  19 SW15      29.79S
MOJAVE         FAIR      81  45  28 SW15G25   29.83S
NEEDLES        CLEAR     91  37  15 S6        29.67R
VICTORVILLE    CLEAR     72  45  37 SW6       29.87R

$$

CAZ039-040-030800-
VENTURA AND SANTA BARBARA COUNTY COAST


CITY           SKY/WX    TMP DP  RH WIND       PRES   REMARKS
CAMARILLO      CLEAR     69  61  75 CALM      29.79S
NWS OXNARD       N/A     65  61  85 CALM      29.80R
OXNARD AIRPORT CLOUDY    66  62  87 CALM      29.80S
*POINT MUGU    PTCLDY    67  61  81 W3        29.80S
SBA APT/GOLETA MOCLDY    65  62  90 E9        29.78S
*SANTA BARBARA   N/A     67  61  80 W2        29.86S
*VENTURA         N/A     65  61  86 CALM      29.84S

$$

CAZ044-045-030800-
VENTURA COUNTY VALLEYS


CITY           SKY/WX    TMP DP  RH WIND       PRES   REMARKS
*SIMI VALLEY     N/A     63  59  86 CALM      29.75S
*OJAI            N/A     62  58  86 CALM      29.73S
*FILLMORE        N/A     62  57  84 CALM      29.71S

$$

CAZ053-030800-
VENTURA COUNTY MOUNTAINS


CITY           SKY/WX    TMP DP  RH WIND       PRES   REMARKS
*LOCKWOOD VLY    N/A     52  36  54 MISG        N/A
*ROSE VALLEY     N/A     55  50  82 MISG        N/A

$$

CAZ034-035-036-030800-
CENTRAL COAST AND SANTA YNEZ VALLEY


CITY           SKY/WX    TMP DP  RH WIND       PRES   REMARKS
SAN LUIS OBISP CLOUDY    61  58  90 W6        29.82F
SANTA MARIA    CLOUDY    62  57  83 W7        29.83F

CITY           SKY/WX    TMP DP  RH WIND       PRES   REMARKS
*CAL POLY SLO    N/A     61  59  94 W5G10       N/A
*LOMPOC        CLOUDY    63  55  77 W3        29.83F
*SANTA YNEZ    FAIR      57  54  88 CALM      29.83S

$$

CAZ037-038-051-030800-
SAN LUIS OBISPO COUNTY INTERIOR AND CUYAMA VALLEY


CITY           SKY/WX    TMP DP  RH WIND       PRES   REMARKS
*CUYAMA          N/A     67  46  46 S3        29.73S
PASO ROBLES    CLEAR     61  54  77 S3        29.81F

$$

CAZ032-033-061-030800-
SOUTHERN DESERTS


CITY           SKY/WX    TMP DP  RH WIND       PRES   REMARKS
BLYTHE         CLEAR     91  60  35 S10       29.66R HX  90
IMPERIAL       CLEAR     89  47  23 W13       29.63R
PALM SPRINGS   CLEAR     87  43  21 S3        29.68R
THERMAL        CLEAR     89  40  17 NW9       29.61S

$$

ELSEWHERE ACROSS THE WESTERN UNITED STATES AND MEXICO


CITY           SKY/WX    TMP DP  RH WIND       PRES   REMARKS
DENVER, CO     PTCLDY    64  52  64 S13       29.96F
GRAND CANYON,    N/A    N/A N/A N/A MISG        N/A
HONOLULU, HI   PTCLDY    81  70  69 E10       30.03R
KAHULUI, MAUI  PTCLDY    79  68  69 E7        30.02R
LAKE TAHOE, CA CLEAR     52  38  58 CALM      30.08S
LAS VEGAS, NV  CLEAR     90  34  13 S12       29.71S
MAMMOTH LAKES, FAIR      57  30  35 W5        30.12S
MEXICO CITY, M MOCLDY    61  55  82 W2        30.21F
PHOENIX, AZ    CLEAR     93  45  19 SW5       29.72R
PORTLAND, OR   MOCLDY    61  48  62 SW7       30.00R
RENO, NV       CLEAR     76  35  22 NW17      29.93S
SALT LAKE CITY PTCLDY    74  42  31 SE14      29.76F
SAN DIEGO, CA  CLOUDY    72  63  73 S5        29.83F
SAN FRANCISCO, PTCLDY    61  57  87 S5        29.79S
SAN JOSE, CA   PTCLDY    61  56  83 CALM      29.79S
SEATTLE, WA    LGT RAIN  57  52  83 SW8       29.91S
TIJUANA, MEX   CLOUDY    68  61  77 CALM      29.85

$$

STATION/POSITION TIME  TEMP    WIND        PRES    VSBY  WAVE
                       AIR SEA DIR/SP/G                  HT/PER
                 (UTC) (F)     (DEG/KT/KT) (MB)    (MI)  (FT/S)
POINT ARGUELLO B NOT AVBL
WEST SANTA BARBA 0700   62 63  320/ 19/ 23 1008.3R         6/ 8
POINT CONCEPTION NOT AVBL
EAST SANTA BARBA 0700   65 67  200/  8/  8 1008.5F
SANTA MONICA BAY 0700   67 72  180/  2/  4 1009.1R         3/14


USA.gov is the U.S. government's official web portal to all federal, state and local government web resources and services.